Skip Page Navigation
NASA JPL Caltech
NASA Logo - Jet Propulsion Laboratory + View the NASA Portal
+ Near-Earth Object (NEO) Program
Search JPL
JPL Home Earth Solar System Stars & Galaxies Technology
JPL Solar System Dynamics
BODIES ORBITS EPHEMERIDES TOOLS PHYSICAL DATA DISCOVERY FAQ SITE MAP
JPL Small-Body Database Browser
Search: [ help ]  
141525 (2002 FV5)
Classification: Apollo [NEO, PHA]          SPK-ID: 2141525
Ephemeris | Orbit Diagram | Orbital Elements | Physical Parameters | Discovery Circumstances | Close-Approach Data ]

[ hide orbit diagram ]
Orbit Diagram
Note: Make sure you have Java enabled on your browser to see the applet. This applet is provided as a 3D orbit visualization tool. The applet was implemented using 2-body methods, and hence should not be used for determining accurate long-term trajectories (over several years or decades) or planetary encounter circumstances. For accurate long-term ephemerides, please instead use our Horizons system.
Orbit Viewer

Additional Notes: the orbits shown in the applet are color coded. The planets are white lines, and the asteroid/comet is a blue line. The bright white line indicates the portion of the orbit that is above the ecliptic plane, and the darker portion is below the ecliptic plane. Likewise for the asteroid/comet orbit, the light blue indicates the portion above the ecliptic plane, and the dark blue the portion below the ecliptic plane.

Orbit Viewer applet originally written and kindly provided by Osamu Ajiki (AstroArts), and further modified by Ron Baalke (JPL).


Orbital Elements at Epoch 2456400.5 (2013-Apr-18.0) TDB
Reference: JPL 78 (heliocentric ecliptic J2000)
 Element Value Uncertainty (1-sigma)   Units 
e .7246875335187704 2.1241e-07  
a 1.086837727659773 8.5002e-09 AU
q .299219975466867 2.2995e-07 AU
i 34.01672202011136 2.7437e-05 deg
node 38.91407336135133 1.291e-05 deg
peri 308.0582226649959 2.0418e-05 deg
M 198.0098121648286 3.79e-05 deg
tp 2456586.722303225940
(2013-Oct-21.22230323)
4.5619e-05 JED
period 413.8524070948866
1.13
4.8551e-06
1.329e-08
d
yr
n .8698753319500699 1.0205e-08 deg/d
Q 1.874455479852678 1.466e-08 AU
  Orbit Determination Parameters
   # obs. used (total)      347  
   data-arc span      3685 days (10.09 yr)  
   first obs. used      2002-03-21  
   last obs. used      2012-04-22  
   planetary ephem.      DE405  
   SB-pert. ephem.      SB405-CPV-2  
   condition code      0  
   fit RMS      .62134  
   data source      ORB  
   producer      Otto Matic  
   solution date      2013-Apr-29 15:39:01  

Additional Information
 Earth MOID = .0358986 AU 
 T_jup = 5.310 
[ show covariance matrix ]

Ephemeris | Orbit Diagram | Orbital Elements | Physical Parameters | Discovery Circumstances | Close-Approach Data ]

Physical Parameter Table
Parameter Symbol Value Units Sigma Reference Notes
absolute magnitude H 17.853 mag .7145 78 autocmod 2.5c

141525 (2002 FV5)          Discovered 2002-Mar-21 by LINEAR at Socorro (704)
Reference: 20061205/Numbers.arcLast Updated: 2006-12-13

[ show close-approach data ]
Ephemeris | Orbit Diagram | Orbital Elements | Physical Parameters | Discovery Circumstances | Close-Approach Data ]
ABOUT SSD CREDITS/AWARDS PRIVACY/COPYRIGHT GLOSSARY LINKS
FirstGov 2013-May-24 18:22 UT
(server date/time)  
NASA Home Page
Site Manager:   Donald K. Yeomans
Webmaster  Alan B. Chamberlin